| time (UTC) | temp C | wind direction | speed KPH | gust KPH | rain 1hr cm | rain 24hr cm | rain mn cm | humidity % | barometer mb |
| 20260502170318 | 11 | 75 | 4.8 | 16.1 | 0.00 | 0.00 | 0.00 | 40 | 1018.3 |
| 20260502164306 | 11 | 89 | 8.0 | 29.0 | 0.00 | 0.00 | 0.00 | 42 | 1018.4 |
| 20260502163801 | 12 | 42 | 14.5 | 22.5 | 0.00 | 0.00 | 0.00 | 43 | 1018.6 |
| 20260502163258 | 12 | 330 | 3.2 | 11.3 | 0.00 | 0.00 | 0.00 | 39 | 1018.9 |
| 20260502162755 | 10 | 84 | 6.4 | 14.5 | 0.00 | 0.00 | 0.00 | 43 | 1018.8 |
| 20260502162252 | 11 | 67 | 11.3 | 14.5 | 0.00 | 0.00 | 0.00 | 42 | 1018.7 |
| 20260502161749 | 11 | 57 | 4.8 | 9.7 | 0.00 | 0.00 | 0.00 | 43 | 1018.8 |
| 20260502161245 | 12 | 101 | 3.2 | 11.3 | 0.00 | 0.00 | 0.00 | 41 | 1018.5 |
| 20260502160743 | 12 | 16 | 1.6 | 14.5 | 0.00 | 0.00 | 0.00 | 44 | 1018.9 |
| 20260502160242 | 11 | 192 | 1.6 | 6.4 | 0.00 | 0.00 | 0.00 | 40 | 1019.0 |
| 20260502152206 | 10 | 69 | 4.8 | 9.7 | 0.00 | 0.00 | 0.00 | 48 | 1019.0 |
| 20260502151703 | 10 | 73 | 6.4 | 9.7 | 0.00 | 0.00 | 0.00 | 48 | 1018.9 |
| 20260502151200 | 11 | 83 | 0.0 | 1.6 | 0.00 | 0.00 | 0.00 | 55 | 1019.0 |
| 20260502150657 | 10 | 330 | 3.2 | 12.9 | 0.00 | 0.00 | 0.00 | 52 | 1019.0 |
| 20260502150154 | 10 | 58 | 0.0 | 1.6 | 0.00 | 0.00 | 0.00 | 59 | 1019.1 |
| 20260502140117 | 9 | 220 | 1.6 | 4.8 | 0.00 | 0.00 | 0.00 | 62 | 1019.3 |
| 20260502130542 | 6 | 88 | 1.6 | 3.2 | 0.00 | 0.00 | 0.00 | 87 | 1019.5 |
| 20260502123525 | 3 | 63 | 0.0 | 1.6 | 0.00 | 0.00 | 0.00 | 97 | 1019.3 |
| 20260502123022 | 3 | 56 | 1.6 | 1.6 | 0.00 | 0.00 | 0.00 | 98 | 1019.2 |
| 20260502122519 | 3 | 81 | 1.6 | 1.6 | 0.00 | 0.00 | 0.00 | 99 | 1019.2 |
| 20260502122016 | 2 | 60 | 0.0 | 1.6 | 0.00 | 0.00 | 0.00 | 99 | 1019.3 |
| 20260502121513 | 2 | 69 | 0.0 | 1.6 | 0.00 | 0.00 | 0.00 | 99 | 1019.6 |
| 20260502121011 | 2 | 84 | 0.0 | 1.6 | 0.00 | 0.00 | 0.00 | 99 | 1019.5 |
| 20260502120507 | 2 | 36 | 0.0 | 0.0 | 0.00 | 0.00 | 0.00 | 99 | 1019.3 |
| 20260502115501 | 1 | 66 | 0.0 | 0.0 | 0.00 | 0.00 | 0.00 | 99 | 1019.5 |
| 20260502114957 | 1 | 71 | 0.0 | 0.0 | 0.00 | 0.00 | 0.00 | 99 | 1019.5 |
| 20260502114454 | 2 | 67 | 0.0 | 0.0 | 0.00 | 0.00 | 0.00 | 99 | 1019.6 |
| 20260502113951 | 2 | 270 | 0.0 | 0.0 | 0.00 | 0.00 | 0.00 | 99 | 1019.2 |
| 20260502113449 | 1 | 270 | 0.0 | 0.0 | 0.00 | 0.00 | 0.00 | 99 | 1019.5 |
| 20260502112947 | 0 | 270 | 0.0 | 0.0 | 0.00 | 0.00 | 0.00 | 99 | 1019.3 |
| 20260502112444 | 0 | 270 | 0.0 | 0.0 | 0.00 | 0.00 | 0.00 | 99 | 1019.3 |
| 20260502111942 | 0 | 270 | 0.0 | 0.0 | 0.00 | 0.00 | 0.00 | 99 | 1019.3 |
| 20260502111439 | 0 | 270 | 0.0 | 0.0 | 0.00 | 0.00 | 0.00 | 99 | 1019.2 |
| 20260502110936 | 0 | 270 | 0.0 | 0.0 | 0.00 | 0.00 | 0.00 | 99 | 1019.0 |
| 20260502110434 | 0 | 270 | 0.0 | 0.0 | 0.00 | 0.00 | 0.00 | 99 | 1019.2 |
| 20260502105931 | 0 | 270 | 0.0 | 0.0 | 0.00 | 0.00 | 0.00 | 99 | 1019.0 |
| 20260502105428 | 0 | 270 | 0.0 | 0.0 | 0.00 | 0.00 | 0.00 | 99 | 1018.9 |
| 20260502104926 | 0 | 270 | 0.0 | 0.0 | 0.00 | 0.00 | 0.00 | 99 | 1019.0 |
| 20260502104423 | 0 | 269 | 0.0 | 0.0 | 0.00 | 0.00 | 0.00 | 99 | 1019.2 |
| 20260502103920 | 0 | 270 | 0.0 | 0.0 | 0.00 | 0.00 | 0.00 | 99 | 1019.2 |
| 20260502103418 | 0 | 270 | 0.0 | 0.0 | 0.00 | 0.00 | 0.00 | 99 | 1019.6 |
| 20260502102915 | 0 | 269 | 0.0 | 0.0 | 0.00 | 0.00 | 0.00 | 99 | 1019.5 |
| 20260502102411 | 0 | 270 | 0.0 | 0.0 | 0.00 | 0.00 | 0.00 | 99 | 1019.5 |
| 20260502101909 | 0 | 271 | 0.0 | 0.0 | 0.00 | 0.00 | 0.00 | 99 | 1019.6 |
| 20260502101407 | 0 | 275 | 0.0 | 0.0 | 0.00 | 0.00 | 0.00 | 99 | 1019.5 |
| 20260502100905 | 0 | 275 | 0.0 | 0.0 | 0.00 | 0.00 | 0.00 | 99 | 1019.6 |
| 20260502100404 | 0 | 270 | 0.0 | 0.0 | 0.00 | 0.00 | 0.00 | 99 | 1019.5 |
| 20260502091337 | 1 | 271 | 0.0 | 0.0 | 0.00 | 0.00 | 0.00 | 99 | 1019.5 |
| 20260502090835 | 0 | 181 | 0.0 | 0.0 | 0.00 | 0.00 | 0.00 | 99 | 1019.6 |
| 20260502090332 | 0 | 207 | 0.0 | 0.0 | 0.00 | 0.00 | 0.00 | 99 | 1019.6 |
| 20260502071227 | 1 | 232 | 0.0 | 0.0 | 0.00 | 0.00 | 0.00 | 99 | 1019.0 |
| 20260502070725 | 1 | 232 | 0.0 | 0.0 | 0.00 | 0.00 | 0.00 | 99 | 1018.8 |
| 20260502070223 | 2 | 234 | 0.0 | 0.0 | 0.00 | 0.00 | 0.00 | 99 | 1018.9 |
| 20260502065721 | 2 | 227 | 0.0 | 0.0 | 0.00 | 0.00 | 0.00 | 99 | 1018.8 |
| 20260502065218 | 2 | 238 | 0.0 | 0.0 | 0.00 | 0.00 | 0.00 | 99 | 1018.9 |
| 20260502064717 | 2 | 267 | 0.0 | 0.0 | 0.00 | 0.00 | 0.00 | 99 | 1019.1 |
| 20260502064214 | 1 | 269 | 0.0 | 0.0 | 0.00 | 0.00 | 0.00 | 99 | 1019.3 |
| 20260502063711 | 1 | 267 | 0.0 | 0.0 | 0.00 | 0.00 | 0.00 | 98 | 1019.3 |
| 20260502063209 | 1 | 267 | 0.0 | 0.0 | 0.00 | 0.00 | 0.00 | 98 | 1019.6 |
| 20260502062706 | 1 | 267 | 0.0 | 0.0 | 0.00 | 0.00 | 0.00 | 98 | 1019.3 |
| 20260502062203 | 2 | 267 | 0.0 | 0.0 | 0.00 | 0.00 | 0.00 | 98 | 1019.8 |
| 20260502061702 | 2 | 267 | 0.0 | 0.0 | 0.00 | 0.00 | 0.00 | 98 | 1019.5 |
| 20260502061159 | 2 | 267 | 0.0 | 0.0 | 0.00 | 0.00 | 0.00 | 98 | 1019.7 |
| 20260502060654 | 2 | 266 | 0.0 | 0.0 | 0.00 | 0.00 | 0.00 | 98 | 1019.7 |
| 20260502060151 | 2 | 267 | 0.0 | 0.0 | 0.00 | 0.00 | 0.00 | 98 | 1019.6 |
| 20260502055648 | 2 | 268 | 0.0 | 0.0 | 0.00 | 0.00 | 0.00 | 97 | 1019.6 |
| 20260502055146 | 2 | 268 | 0.0 | 0.0 | 0.00 | 0.00 | 0.00 | 97 | 1019.6 |
| 20260502054645 | 2 | 268 | 0.0 | 0.0 | 0.00 | 0.00 | 0.00 | 97 | 1019.8 |
| 20260502054142 | 2 | 268 | 0.0 | 0.0 | 0.00 | 0.00 | 0.00 | 97 | 1019.6 |
| 20260502053639 | 3 | 268 | 0.0 | 0.0 | 0.00 | 0.00 | 0.00 | 97 | 1019.7 |
| 20260502053136 | 3 | 268 | 0.0 | 0.0 | 0.00 | 0.00 | 0.00 | 97 | 1019.6 |
| 20260502052635 | 3 | 269 | 0.0 | 0.0 | 0.00 | 0.00 | 0.00 | 97 | 1019.7 |
| 20260502052132 | 3 | 278 | 0.0 | 0.0 | 0.00 | 0.00 | 0.00 | 96 | 1019.6 |
| 20260502051630 | 3 | 281 | 0.0 | 0.0 | 0.00 | 0.00 | 0.00 | 96 | 1019.7 |
| 20260502051128 | 3 | 281 | 0.0 | 0.0 | 0.00 | 0.00 | 0.00 | 95 | 1019.7 |
| 20260502050624 | 3 | 281 | 0.0 | 0.0 | 0.00 | 0.00 | 0.00 | 95 | 1019.8 |
| 20260502050121 | 4 | 280 | 0.0 | 0.0 | 0.00 | 0.00 | 0.00 | 95 | 1019.8 |
| 20260502045617 | 4 | 280 | 0.0 | 0.0 | 0.00 | 0.00 | 0.00 | 94 | 1019.7 |
| 20260502045115 | 4 | 281 | 0.0 | 0.0 | 0.00 | 0.00 | 0.00 | 94 | 1019.9 |
| 20260502044611 | 4 | 281 | 0.0 | 0.0 | 0.00 | 0.00 | 0.00 | 93 | 1019.7 |
| 20260502044108 | 5 | 281 | 0.0 | 0.0 | 0.00 | 0.00 | 0.00 | 92 | 1019.8 |
| 20260502043606 | 5 | 281 | 0.0 | 0.0 | 0.00 | 0.00 | 0.00 | 92 | 1019.8 |
| 20260502043102 | 5 | 282 | 0.0 | 0.0 | 0.00 | 0.00 | 0.00 | 92 | 1019.7 |
| 20260502042556 | 5 | 284 | 0.0 | 0.0 | 0.00 | 0.00 | 0.00 | 91 | 1019.7 |
| 20260502042054 | 5 | 292 | 0.0 | 0.0 | 0.00 | 0.00 | 0.00 | 91 | 1019.8 |
| 20260502041552 | 6 | 286 | 0.0 | 0.0 | 0.00 | 0.00 | 0.00 | 90 | 1019.7 |
| 20260502041048 | 6 | 328 | 0.0 | 0.0 | 0.00 | 0.00 | 0.00 | 90 | 1019.8 |
| 20260502040545 | 6 | 328 | 0.0 | 0.0 | 0.00 | 0.00 | 0.00 | 90 | 1019.7 |
| 20260502040042 | 6 | 302 | 0.0 | 0.0 | 0.00 | 0.00 | 0.00 | 89 | 1019.7 |
| 20260502035538 | 6 | 357 | 0.0 | 0.0 | 0.00 | 0.00 | 0.00 | 88 | 1019.5 |
| 20260502035036 | 6 | 358 | 0.0 | 0.0 | 0.00 | 0.00 | 0.00 | 87 | 1019.6 |
| 20260502034534 | 6 | 358 | 0.0 | 0.0 | 0.00 | 0.00 | 0.00 | 87 | 1019.6 |
| 20260502034032 | 6 | 274 | 0.0 | 0.0 | 0.00 | 0.00 | 0.00 | 86 | 1019.6 |
| 20260502033530 | 7 | 1 | 0.0 | 0.0 | 0.00 | 0.00 | 0.00 | 85 | 1019.5 |
| 20260502033027 | 7 | 68 | 0.0 | 0.0 | 0.00 | 0.00 | 0.00 | 85 | 1019.7 |
| 20260502032522 | 7 | 296 | 0.0 | 0.0 | 0.00 | 0.00 | 0.00 | 86 | 1019.6 |
| 20260502032020 | 7 | 296 | 0.0 | 0.0 | 0.00 | 0.00 | 0.00 | 83 | 1019.6 |
| 20260502031517 | 7 | 297 | 0.0 | 0.0 | 0.00 | 0.00 | 0.00 | 83 | 1019.6 |
| 20260502031015 | 7 | 286 | 0.0 | 0.0 | 0.00 | 0.00 | 0.00 | 82 | 1019.7 |
| 20260502030514 | 8 | 330 | 0.0 | 0.0 | 0.00 | 0.00 | 0.00 | 81 | 1019.5 |
| 20260502030011 | 8 | 283 | 0.0 | 0.0 | 0.00 | 0.00 | 0.00 | 80 | 1019.3 |
| 20260502025508 | 8 | 283 | 0.0 | 0.0 | 0.00 | 0.00 | 0.00 | 78 | 1019.6 |
| 20260502025006 | 8 | 147 | 0.0 | 0.0 | 0.00 | 0.00 | 0.00 | 77 | 1019.3 |
| 20260502024503 | 8 | 66 | 0.0 | 0.0 | 0.00 | 0.00 | 0.00 | 75 | 1019.7 |
| 20260502024002 | 8 | 112 | 0.0 | 0.0 | 0.00 | 0.00 | 0.00 | 77 | 1019.6 |
| 20260502023459 | 8 | 175 | 0.0 | 0.0 | 0.00 | 0.00 | 0.00 | 72 | 1019.5 |
| 20260502022956 | 9 | 307 | 0.0 | 1.6 | 0.00 | 0.00 | 0.00 | 71 | 1019.5 |
| 20260502022453 | 9 | 307 | 0.0 | 6.4 | 0.00 | 0.00 | 0.00 | 69 | 1019.1 |
| 20260502021950 | 9 | 280 | 0.0 | 1.6 | 0.00 | 0.00 | 0.00 | 73 | 1018.9 |
| 20260502021447 | 9 | 68 | 0.0 | 1.6 | 0.00 | 0.00 | 0.00 | 69 | 1018.9 |
| 20260502020944 | 9 | 311 | 3.2 | 3.2 | 0.00 | 0.00 | 0.00 | 71 | 1018.4 |
| 20260502020442 | 10 | 33 | 3.2 | 6.4 | 0.00 | 0.00 | 0.00 | 69 | 1018.3 |
| 20260502015938 | 10 | 64 | 4.8 | 6.4 | 0.00 | 0.00 | 0.00 | 67 | 1018.5 |
| 20260502015436 | 10 | 57 | 1.6 | 1.6 | 0.00 | 0.00 | 0.00 | 69 | 1018.5 |
| 20260502014933 | 10 | 305 | 1.6 | 3.2 | 0.00 | 0.00 | 0.00 | 70 | 1018.6 |
| 20260502014430 | 10 | 207 | 1.6 | 1.6 | 0.00 | 0.00 | 0.00 | 72 | 1018.3 |
| 20260502013926 | 10 | 66 | 1.6 | 1.6 | 0.00 | 0.00 | 0.00 | 70 | 1018.4 |
| 20260502013422 | 10 | 79 | 1.6 | 1.6 | 0.00 | 0.00 | 0.00 | 78 | 1018.2 |
| 20260502012918 | 10 | 95 | 0.0 | 1.6 | 0.00 | 0.00 | 0.00 | 73 | 1018.2 |
| 20260502012416 | 9 | 214 | 0.0 | 3.2 | 0.00 | 0.00 | 0.00 | 81 | 1018.1 |
| 20260502011914 | 9 | 273 | 1.6 | 1.6 | 0.00 | 0.00 | 0.00 | 82 | 1018.0 |
| 20260502011410 | 10 | 300 | 0.0 | 0.0 | 0.00 | 0.00 | 0.00 | 81 | 1017.8 |
| 20260502010907 | 10 | 332 | 0.0 | 1.6 | 0.00 | 0.00 | 0.00 | 79 | 1017.7 |
| 20260502010403 | 10 | 68 | 0.0 | 1.6 | 0.00 | 0.00 | 0.00 | 78 | 1017.4 |
| 20260502005900 | 10 | 84 | 0.0 | 1.6 | 0.00 | 0.00 | 0.00 | 82 | 1017.4 |
| 20260502005358 | 10 | 324 | 3.2 | 4.8 | 0.00 | 0.00 | 0.00 | 84 | 1017.3 |
| 20260502004855 | 10 | 313 | 0.0 | 0.0 | 0.00 | 0.00 | 0.00 | 84 | 1017.3 |
| 20260502004351 | 10 | 66 | 0.0 | 0.0 | 0.00 | 0.00 | 0.00 | 85 | 1017.3 |
| 20260502003849 | 10 | 73 | 0.0 | 0.0 | 0.00 | 0.00 | 0.00 | 85 | 1017.4 |
| 20260502003346 | 10 | 85 | 0.0 | 0.0 | 0.00 | 0.00 | 0.00 | 83 | 1017.3 |
| 20260502002842 | 10 | 85 | 0.0 | 0.0 | 0.00 | 0.00 | 0.00 | 84 | 1017.0 |
| 20260502002339 | 10 | 85 | 0.0 | 0.0 | 0.00 | 0.00 | 0.00 | 84 | 1017.1 |
| 20260502001836 | 10 | 85 | 0.0 | 0.0 | 0.00 | 0.00 | 0.00 | 82 | 1017.0 |
| 20260502001334 | 10 | 85 | 0.0 | 0.0 | 0.00 | 0.00 | 0.00 | 83 | 1016.7 |
| 20260502000831 | 10 | 128 | 0.0 | 0.0 | 0.00 | 0.00 | 0.00 | 83 | 1016.6 |
| 20260502000332 | 10 | 201 | 0.0 | 0.0 | 0.00 | 0.00 | 0.00 | 82 | 1016.5 |
| 20260501235825 | 10 | 261 | 0.0 | 0.0 | 0.00 | 0.00 | 0.00 | 80 | 1016.1 |
| 20260501235321 | 10 | 261 | 0.0 | 0.0 | 0.00 | 0.00 | 0.00 | 80 | 1016.2 |
| 20260501234817 | 10 | 265 | 0.0 | 0.0 | 0.00 | 0.00 | 0.00 | 78 | 1015.9 |
| 20260501234314 | 11 | 265 | 0.0 | 0.0 | 0.00 | 0.00 | 0.00 | 78 | 1015.9 |
| 20260501233813 | 11 | 265 | 0.0 | 0.0 | 0.00 | 0.00 | 0.00 | 77 | 1016.1 |
| 20260501233309 | 11 | 298 | 0.0 | 0.0 | 0.00 | 0.00 | 0.00 | 78 | 1015.9 |
| 20260501232805 | 11 | 298 | 0.0 | 0.0 | 0.00 | 0.00 | 0.00 | 77 | 1015.8 |
| 20260501232305 | 11 | 145 | 0.0 | 0.0 | 0.00 | 0.00 | 0.00 | 77 | 1016.1 |
| 20260501231800 | 11 | 4 | 0.0 | 0.0 | 0.00 | 0.00 | 0.00 | 74 | 1016.0 |
| 20260501231258 | 11 | 279 | 0.0 | 0.0 | 0.00 | 0.00 | 0.00 | 72 | 1016.1 |
| 20260501230756 | 11 | 50 | 0.0 | 3.2 | 0.00 | 0.00 | 0.00 | 71 | 1016.2 |
| 20260501230254 | 11 | 60 | 0.0 | 1.6 | 0.00 | 0.00 | 0.00 | 72 | 1016.3 |
| 20260501225751 | 11 | 234 | 1.6 | 4.8 | 0.00 | 0.00 | 0.00 | 66 | 1015.9 |
| 20260501225249 | 11 | 81 | 1.6 | 4.8 | 0.00 | 0.00 | 0.00 | 67 | 1016.0 |
| 20260501224744 | 11 | 48 | 3.2 | 4.8 | 0.00 | 0.00 | 0.00 | 68 | 1016.2 |
| 20260501224242 | 11 | 73 | 3.2 | 9.7 | 0.00 | 0.00 | 0.00 | 65 | 1015.9 |
| 20260501223738 | 12 | 38 | 3.2 | 9.7 | 0.00 | 0.00 | 0.00 | 64 | 1015.7 |
| 20260501223235 | 12 | 71 | 4.8 | 6.4 | 0.00 | 0.00 | 0.00 | 64 | 1016.1 |
| 20260501222731 | 12 | 12 | 0.0 | 1.6 | 0.00 | 0.00 | 0.00 | 62 | 1015.6 |
| 20260501222228 | 12 | 68 | 3.2 | 12.9 | 0.00 | 0.00 | 0.00 | 62 | 1015.7 |
| 20260501221725 | 12 | 38 | 4.8 | 12.9 | 0.00 | 0.00 | 0.00 | 61 | 1015.5 |
| 20260501221222 | 12 | 43 | 16.1 | 22.5 | 0.00 | 0.00 | 0.00 | 62 | 1015.7 |
| 20260501220720 | 13 | 59 | 3.2 | 4.8 | 0.00 | 0.00 | 0.00 | 64 | 1015.6 |
| 20260501220217 | 13 | 65 | 4.8 | 12.9 | 0.00 | 0.00 | 0.00 | 65 | 1015.5 |
| 20260501215709 | 13 | 13 | 6.4 | 14.5 | 0.00 | 0.00 | 0.00 | 63 | 1015.4 |
| 20260501215204 | 13 | 75 | 4.8 | 12.9 | 0.00 | 0.00 | 0.00 | 65 | 1015.5 |
| 20260501214659 | 13 | 279 | 4.8 | 16.1 | 0.00 | 0.00 | 0.00 | 65 | 1015.4 |
| 20260501214155 | 13 | 53 | 9.7 | 11.3 | 0.00 | 0.00 | 0.00 | 68 | 1015.3 |
| 20260501213652 | 13 | 82 | 6.4 | 9.7 | 0.00 | 0.00 | 0.00 | 71 | 1015.3 |
| 20260501213148 | 13 | 65 | 3.2 | 9.7 | 0.00 | 0.00 | 0.00 | 67 | 1014.9 |
| 20260501212645 | 13 | 200 | 4.8 | 6.4 | 0.00 | 0.00 | 0.00 | 66 | 1014.8 |
| 20260501212141 | 13 | 82 | 4.8 | 9.7 | 0.00 | 0.00 | 0.00 | 72 | 1014.9 |
| 20260501211638 | 14 | 349 | 3.2 | 11.3 | 0.00 | 0.00 | 0.00 | 66 | 1014.5 |
| 20260501211136 | 13 | 51 | 6.4 | 6.4 | 0.00 | 0.00 | 0.00 | 69 | 1014.9 |
| 20260501210632 | 13 | 32 | 1.6 | 6.4 | 0.00 | 0.00 | 0.00 | 67 | 1014.9 |
| 20260501210129 | 13 | 63 | 6.4 | 12.9 | 0.00 | 0.00 | 0.00 | 68 | 1015.1 |
| 20260501205625 | 13 | 37 | 1.6 | 9.7 | 0.00 | 0.00 | 0.00 | 68 | 1014.6 |
| 20260501205123 | 13 | 235 | 3.2 | 6.4 | 0.00 | 0.00 | 0.00 | 72 | 1014.7 |
| 20260501204619 | 13 | 97 | 9.7 | 17.7 | 0.00 | 0.00 | 0.00 | 69 | 1014.8 |
| 20260501204115 | 13 | 60 | 6.4 | 11.3 | 0.00 | 0.00 | 0.00 | 66 | 1014.8 |
| 20260501203612 | 13 | 73 | 17.7 | 22.5 | 0.00 | 0.00 | 0.00 | 65 | 1014.6 |
| 20260501203109 | 14 | 97 | 6.4 | 16.1 | 0.00 | 0.00 | 0.00 | 62 | 1014.5 |
| 20260501202607 | 15 | 30 | 4.8 | 6.4 | 0.00 | 0.00 | 0.00 | 58 | 1014.0 |
| 20260501202103 | 15 | 71 | 3.2 | 9.7 | 0.00 | 0.00 | 0.00 | 60 | 1014.3 |
| 20260501201600 | 16 | 144 | 6.4 | 9.7 | 0.00 | 0.00 | 0.00 | 52 | 1014.3 |
| 20260501201056 | 16 | 292 | 8.0 | 12.9 | 0.00 | 0.00 | 0.00 | 50 | 1014.2 |
| 20260501200554 | 17 | 60 | 11.3 | 14.5 | 0.00 | 0.00 | 0.00 | 47 | 1013.7 |
| 20260501200051 | 17 | 77 | 1.6 | 4.8 | 0.00 | 0.00 | 0.00 | 47 | 1013.6 |
| 20260501195549 | 17 | 100 | 4.8 | 9.7 | 0.00 | 0.00 | 0.00 | 46 | 1013.8 |
| 20260501195044 | 17 | 79 | 3.2 | 9.7 | 0.00 | 0.00 | 0.00 | 45 | 1013.7 |
| 20260501194539 | 17 | 137 | 4.8 | 11.3 | 0.00 | 0.00 | 0.00 | 43 | 1013.7 |
| 20260501194035 | 17 | 100 | 0.0 | 4.8 | 0.00 | 0.00 | 0.00 | 40 | 1013.6 |
| 20260501193533 | 17 | 42 | 0.0 | 4.8 | 0.00 | 0.00 | 0.00 | 45 | 1013.5 |
| 20260501193032 | 17 | 99 | 1.6 | 11.3 | 0.00 | 0.00 | 0.00 | 40 | 1013.6 |
| 20260501192528 | 17 | 72 | 14.5 | 24.1 | 0.00 | 0.00 | 0.00 | 38 | 1013.5 |
| 20260501192026 | 18 | 122 | 4.8 | 6.4 | 0.00 | 0.00 | 0.00 | 38 | 1013.6 |
| 20260501191522 | 18 | 70 | 9.7 | 14.5 | 0.00 | 0.00 | 0.00 | 36 | 1013.6 |
| 20260501191020 | 19 | 34 | 4.8 | 11.3 | 0.00 | 0.00 | 0.00 | 36 | 1013.7 |
| 20260501190515 | 18 | 98 | 8.0 | 9.7 | 0.00 | 0.00 | 0.00 | 38 | 1014.0 |
| 20260501190012 | 17 | 89 | 8.0 | 16.1 | 0.00 | 0.00 | 0.00 | 35 | 1013.7 |
| 20260501185507 | 17 | 134 | 4.8 | 22.5 | 0.00 | 0.00 | 0.00 | 36 | 1013.9 |
| 20260501185003 | 17 | 136 | 9.7 | 17.7 | 0.00 | 0.00 | 0.00 | 36 | 1013.8 |
| 20260501184459 | 18 | 228 | 1.6 | 6.4 | 0.00 | 0.00 | 0.00 | 36 | 1013.6 |
| 20260501183954 | 17 | 77 | 6.4 | 14.5 | 0.00 | 0.00 | 0.00 | 36 | 1013.9 |
| 20260501183452 | 18 | 142 | 6.4 | 14.5 | 0.00 | 0.00 | 0.00 | 35 | 1014.0 |
| 20260501182948 | 17 | 79 | 8.0 | 11.3 | 0.00 | 0.00 | 0.00 | 38 | 1014.1 |
| 20260501182445 | 17 | 122 | 3.2 | 12.9 | 0.00 | 0.00 | 0.00 | 36 | 1014.3 |
| 20260501181941 | 18 | 305 | 1.6 | 20.9 | 0.00 | 0.00 | 0.00 | 35 | 1014.3 |
| 20260501181439 | 18 | 96 | 4.8 | 9.7 | 0.00 | 0.00 | 0.00 | 35 | 1014.1 |
| 20260501180936 | 17 | 314 | 4.8 | 12.9 | 0.00 | 0.00 | 0.00 | 33 | 1014.2 |
| 20260501180433 | 17 | 67 | 8.0 | 17.7 | 0.00 | 0.00 | 0.00 | 34 | 1014.5 |
| 20260501175929 | 17 | 323 | 4.8 | 14.5 | 0.00 | 0.00 | 0.00 | 33 | 1014.4 |
| 20260501175426 | 17 | 105 | 16.1 | 22.5 | 0.00 | 0.00 | 0.00 | 32 | 1014.4 |
| 20260501174923 | 17 | 83 | 9.7 | 17.7 | 0.00 | 0.00 | 0.00 | 33 | 1014.3 |
| 20260501174421 | 17 | 104 | 3.2 | 4.8 | 0.00 | 0.00 | 0.00 | 34 | 1014.4 |
| 20260501173918 | 17 | 144 | 4.8 | 11.3 | 0.00 | 0.00 | 0.00 | 32 | 1014.1 |
| 20260501173416 | 17 | 116 | 3.2 | 17.7 | 0.00 | 0.00 | 0.00 | 33 | 1014.3 |
| 20260501172911 | 17 | 28 | 0.0 | 9.7 | 0.00 | 0.00 | 0.00 | 31 | 1014.4 |
| 20260501172407 | 17 | 136 | 8.0 | 20.9 | 0.00 | 0.00 | 0.00 | 32 | 1014.4 |
| 20260501171902 | 17 | 100 | 4.8 | 14.5 | 0.00 | 0.00 | 0.00 | 32 | 1014.7 |